TimeAKST,TemperatureF,Dew PointF,Humidity,Sea Level PressureIn,VisibilityMPH,Wind Direction,Wind SpeedMPH,Gust SpeedMPH,PrecipitationIn,Events,Conditions,WindDirDegrees,DateUTC
12:53 AM,-15.0,-20.9,75,29.75,10.0,NNE,3.5,-,N/A,,Clear,20,2011-12-26 09:53:00
1:53 AM,-17.0,-22.0,78,29.75,10.0,Calm,Calm,-,N/A,,Clear,0,2011-12-26 10:53:00
3:53 AM,-13.0,-18.9,75,29.75,10.0,North,3.5,-,N/A,,Scattered Clouds,10,2011-12-26 12:53:00
4:53 AM,-11.0,-18.0,71,29.73,10.0,NNE,4.6,-,N/A,,Scattered Clouds,20,2011-12-26 13:53:00
5:53 AM,-14.1,-20.0,75,29.73,10.0,Calm,Calm,-,N/A,,Scattered Clouds,0,2011-12-26 14:53:00
6:53 AM,-17.0,-22.0,78,29.73,10.0,Calm,Calm,-,N/A,,Scattered Clouds,0,2011-12-26 15:53:00
7:53 AM,-14.1,-20.0,75,29.71,10.0,Calm,Calm,-,N/A,,Partly Cloudy,0,2011-12-26 16:53:00
8:53 AM,-15.0,-20.9,75,29.70,10.0,North,5.8,-,N/A,,Partly Cloudy,360,2011-12-26 17:53:00
9:53 AM,-16.1,-23.1,71,29.70,10.0,Calm,Calm,-,N/A,,Partly Cloudy,0,2011-12-26 18:53:00
10:53 AM,-13.0,-20.0,71,29.70,10.0,East,5.8,-,N/A,,Partly Cloudy,90,2011-12-26 19:53:00
11:53 AM,-18.0,-23.1,78,29.70,10.0,Calm,Calm,-,N/A,,Scattered Clouds,0,2011-12-26 20:53:00
12:53 PM,-16.1,-22.0,74,29.68,10.0,Calm,Calm,-,N/A,,Mostly Cloudy,0,2011-12-26 21:53:00
1:53 PM,-11.9,-18.0,74,29.66,10.0,Calm,Calm,-,N/A,,Mostly Cloudy,0,2011-12-26 22:53:00
2:53 PM,-13.0,-20.0,71,29.64,10.0,Calm,Calm,-,N/A,,Scattered Clouds,0,2011-12-26 23:53:00
3:53 PM,-15.0,-20.9,75,29.63,10.0,WNW,4.6,-,N/A,,Scattered Clouds,290,2011-12-27 00:53:00
4:53 PM,-14.1,-18.9,79,29.61,10.0,North,5.8,-,N/A,,Scattered Clouds,10,2011-12-27 01:53:00
5:53 PM,-9.0,-16.1,71,29.60,10.0,North,5.8,-,N/A,,Scattered Clouds,360,2011-12-27 02:53:00
6:53 PM,-6.0,-14.1,68,29.60,10.0,Calm,Calm,-,N/A,,Scattered Clouds,0,2011-12-27 03:53:00
7:53 PM,-6.0,-13.0,72,29.59,9.0,North,8.1,-,0.00,Snow,Light Snow,350,2011-12-27 04:53:00
8:53 PM,-7.1,-14.1,72,29.58,10.0,NNW,4.6,-,0.00,,Overcast,340,2011-12-27 05:53:00
9:53 PM,-7.1,-11.9,79,29.57,10.0,North,6.9,-,N/A,,Partly Cloudy,10,2011-12-27 06:53:00
10:53 PM,-9.9,-15.0,78,29.56,10.0,NNE,3.5,-,N/A,,Scattered Clouds,20,2011-12-27 07:53:00
11:53 PM,-6.0,-11.9,75,29.55,10.0,North,5.8,-,N/A,,Mostly Cloudy,350,2011-12-27 08:53:00